Simultaneous Nadir Overpasses (SNOs) Predictions

Prediction of SNOs between GOES-16 and NOAA-19 Satellite Orbit:

Table of predicted SNOs for the next 14.0 days since TLE Epoch: 5/22/2020
Index Date Time (GOES-16) GOES-16 Lat,Lon NOAA-19 Lat,Lon Distance(km) Time Diff (sec)
1 05/22/2020 22:46:23 -0.02, -75.19 0.31, -73.70 169.89 80
2 05/23/2020 22:34:42 -0.02, -75.19 0.97, -70.85 495.31 80
3 05/25/2020 11:07:16 0.01, -75.20 0.80, -78.64 392.46 80
4 05/26/2020 10:55:36 0.01, -75.20 0.13, -75.79 66.85 80
5 05/27/2020 10:41:15 0.01, -75.21 -0.49, -72.93 258.96 80
6 05/29/2020 23:02:24 -0.00, -75.20 -0.62, -77.94 312.83 80
7 05/30/2020 22:53:24 -0.00, -75.20 0.05, -75.09 13.84 80
8 05/31/2020 22:41:42 -0.00, -75.21 0.66, -72.23 339.98 80
9 06/03/2020 11:02:34 0.00, -75.25 0.46, -77.16 218.56 80
10 06/04/2020 10:48:14 -0.00, -75.26 -0.22, -74.31 108.32 80
11 06/05/2020 10:36:33 0.00, -75.27 -0.90, -71.46 435.32 80




NCC Satellite Simultaneous Nadir Overpasses (SNOs) Prediction Service
